Home > Weather > Bamako > Past weeks

Flag for Mali Past Weather in Bamako, Mali — Yesterday and Last 2 Weeks

Now
86 °F

Scattered clouds.


Feels Like: 92 °F
Forecast: 72 / 87 °F
Wind: 5 mph from Southwest

Location: Bamako / Senou

Current Time: Jul 29, 2016 at 2:11:14 PM

Latest Report: Jul 29, 2016 at 1:30 PM


Visibility: N/A

Pressure: 29.95 "Hg

Humidity: 62%

Dew Point: 72 °F

Location of BamakoLocation

Past Weather in Bamako — Graph

°F

Bamako Temperature Yesterday

Maximum temperature yesterday: 84 °F (at 4:00 PM)
Minimum temperature yesterday: 68 °F (at 4:30 AM)
Average temperature yesterday: 77 °F

High & Low Weather Summary for the Past Weeks

 TemperatureHumidityPressure
High93 °F (Jul 15, 4:30 PM)100% (Jul 15, 3:00 AM)30.04 "Hg (Jul 15, 3:00 AM)
Low68 °F (Jul 28, 4:30 AM)44% (Jul 16, 2:00 PM)29.83 "Hg (Jul 16, 5:00 PM)
Average79 °F87%29.94 "Hg
* Reported Jul 14 1:00 PM — Jul 29 1:00 PM, Bamako, Weather by CustomWeather, © 2016

Note: Actual official high and low records may vary slightly from our data, if they occured in-between our weather recording intervals... More about our weather records

Advertising

Bamako Weather History for the Previous 24 Hours

Scroll right to see more
 ConditionsComfort  
Time TempWeatherWind HumidityBarometerVisibility
1:00 PM
Fri, Jul 29
86 °FPartly sunny.2 mph62%29.98 "HgN/A
12:30 PM86 °FPartly sunny.1 mph59%29.98 "HgN/A
12:00 PM84 °FPartly sunny.3 mph70%29.98 "HgN/A
11:30 AM82 °FPartly sunny.2 mph70%30.01 "HgN/A
11:00 AM82 °FPartly sunny.2 mph74%30.01 "HgN/A
10:30 AM82 °FScattered clouds.3 mph79%30.01 "HgN/A
10:00 AM82 °FScattered clouds.2 mph79%30.01 "HgN/A
9:30 AM81 °FScattered clouds.3 mph84%30.01 "HgN/A
9:00 AM79 °FScattered clouds.2 mph89%30.01 "HgN/A
8:30 AM77 °FScattered clouds.3 mph94%30.01 "HgN/A
8:00 AM75 °FPassing clouds.3 mph100%29.98 "HgN/A
7:30 AM75 °FPassing clouds.5 mph100%29.98 "HgN/A
7:00 AM73 °FPassing clouds.2 mph100%29.95 "HgN/A
6:30 AM73 °FPassing clouds.1 mph100%29.95 "HgN/A
6:00 AM73 °FPassing clouds.1 mph100%29.95 "HgN/A
5:30 AM73 °FPassing clouds.No wind100%29.95 "HgN/A
5:00 AM73 °FPassing clouds.1 mph100%29.95 "HgN/A
4:30 AM73 °FPassing clouds.1 mph100%29.95 "HgN/A
4:00 AM73 °FPassing clouds.2 mph100%29.95 "HgN/A
3:30 AM73 °FPassing clouds.No wind100%29.95 "HgN/A
3:00 AM73 °FPassing clouds.2 mph100%29.95 "HgN/A
2:30 AM75 °FPassing clouds.2 mph100%29.95 "HgN/A
2:00 AM75 °FPassing clouds.3 mph100%29.95 "HgN/A
1:30 AM75 °FPassing clouds.5 mph100%29.95 "HgN/A
1:00 AM75 °FPassing clouds.3 mph100%29.95 "HgN/A
12:30 AM77 °FThunderstorms. Passing clouds.5 mph100%29.95 "HgN/A
12:00 AM77 °FThunderstorms. Passing clouds.2 mph100%29.98 "HgN/A
11:30 PM
Thu, Jul 28
77 °FThunderstorms. Passing clouds.5 mph100%29.98 "HgN/A
11:00 PM77 °FThunderstorms. Passing clouds.3 mph94%29.98 "HgN/A
10:30 PM79 °FThunderstorms. Passing clouds.2 mph89%29.98 "HgN/A
10:00 PM79 °FThunderstorms. Passing clouds.2 mph89%29.98 "HgN/A
9:30 PM79 °FThunderstorms. Passing clouds.2 mph89%29.95 "HgN/A
9:00 PM79 °FThunderstorms. Passing clouds.5 mph84%29.95 "HgN/A
8:30 PM79 °FThunderstorms. Passing clouds.2 mph89%29.95 "HgN/A
8:00 PM81 °FPassing clouds.5 mph79%29.92 "HgN/A
7:30 PM81 °FPassing clouds.5 mph79%29.92 "HgN/A
7:00 PM81 °FPassing clouds.5 mph79%29.92 "HgN/A
6:30 PM82 °FPassing clouds.5 mph74%29.92 "HgN/A
6:00 PM84 °FPassing clouds.3 mph70%29.89 "HgN/A
5:30 PM84 °FPassing clouds.3 mph66%29.89 "HgN/A
5:00 PM82 °FPassing clouds.5 mph70%29.89 "HgN/A
4:30 PM84 °FPassing clouds.6 mph66%29.89 "HgN/A
4:00 PM84 °FPassing clouds.6 mph62%29.89 "HgN/A
3:30 PM82 °FPassing clouds.2 mph66%29.89 "HgN/A
3:00 PM82 °FPassing clouds.3 mph70%29.92 "HgN/A
2:30 PM81 °FPassing clouds.3 mph74%29.92 "HgN/A
2:00 PM79 °FPassing clouds.2 mph79%29.92 "HgN/A
Weather by CustomWeather, © 2016

See weather overviewHow to use our weather pages